Location: Unspecified
(49.9820°N, 20.4363°E)
Time: 00:48:43
(UTC+02:00)

ISS - Pass Details

Date: 21 July 2018
Orbit: 402 x 408 km, 51.6° (Epoch: 16 July)

Event Time Altitude Azimuth Distance (km) Brightness Sun altitude
Rises 22:54:18 0° 252° (WSW) 2,318 0.1 -15.5°
Reaches altitude 10° 22:56:22 10° 252° (WSW) 1,461 -0.9 -15.7°
Maximum altitude 22:59:39 88° 173° (S) 411 -3.9 -15.9°
Drops below altitude 10° 23:02:57 10° 74° (ENE) 1,468 -1.1 -16.1°
Sets 23:05:02 0° 74° (ENE) 2,331 -0.1 -16.3°
